Time,TemperatureF,DewpointF,PressureIn,WindDirection,WindDirectionDegrees,WindSpeedMPH,WindSpeedGustMPH,Humidity,HourlyPrecipIn,Conditions,Clouds,dailyrainin,SoftwareType,DateUTC
2013-04-11 00:03:00,33.0,32.0,29.78,North,5,6.0,6.0,96,0.01,,,0.00,VWS V14.00,2013-04-11 05:03:00,
2013-04-11 00:08:00,32.9,31.9,29.77,North,5,6.0,6.0,96,0.01,,,0.00,VWS V14.00,2013-04-11 05:08:00,
2013-04-11 00:13:00,32.9,31.9,29.77,North,5,6.0,6.0,96,0.01,,,0.00,VWS V14.00,2013-04-11 05:13:00,
2013-04-11 00:18:00,32.9,31.9,29.77,North,5,6.0,6.0,96,0.01,,,0.00,VWS V14.00,2013-04-11 05:18:00,
2013-04-11 00:23:00,32.9,31.9,29.77,North,5,6.0,6.0,96,0.01,,,0.00,VWS V14.00,2013-04-11 05:23:00,
2013-04-11 00:28:00,32.9,31.9,29.77,North,5,6.0,6.0,96,0.01,,,0.00,VWS V14.00,2013-04-11 05:28:00,
2013-04-11 00:33:00,32.8,31.8,29.77,North,5,6.0,6.0,96,0.01,,,0.00,VWS V14.00,2013-04-11 05:33:00,
2013-04-11 00:38:00,32.8,31.8,29.76,North,5,6.0,6.0,96,0.01,,,0.00,VWS V14.00,2013-04-11 05:38:00,
2013-04-11 00:43:00,32.8,31.8,29.76,North,5,6.0,6.0,96,0.01,,,0.00,VWS V14.00,2013-04-11 05:43:00,
2013-04-11 00:49:00,32.8,31.8,29.76,North,5,6.0,6.0,96,0.01,,,0.00,VWS V14.00,2013-04-11 05:49:00,
2013-04-11 00:54:00,32.7,31.7,29.76,North,5,6.0,6.0,96,0.01,,,0.00,VWS V14.00,2013-04-11 05:54:00,
2013-04-11 00:59:00,32.6,31.6,29.76,North,5,6.0,6.0,96,0.00,,,0.00,VWS V14.00,2013-04-11 05:59:00,
2013-04-11 01:04:00,32.6,31.6,29.76,North,5,6.0,6.0,96,0.00,,,0.00,VWS V14.00,2013-04-11 06:04:00,
2013-04-11 01:09:00,32.6,31.6,29.76,North,5,6.0,6.0,96,0.00,,,0.00,VWS V14.00,2013-04-11 06:09:00,
2013-04-11 01:14:00,32.6,31.6,29.76,North,5,6.0,6.0,96,0.00,,,0.00,VWS V14.00,2013-04-11 06:14:00,
2013-04-11 01:19:00,32.6,31.6,29.76,North,5,6.0,6.0,96,0.00,,,0.00,VWS V14.00,2013-04-11 06:19:00,
2013-04-11 01:24:00,32.5,31.5,29.76,North,5,6.0,6.0,96,0.00,,,0.00,VWS V14.00,2013-04-11 06:24:00,
2013-04-11 01:29:00,32.5,31.5,29.76,North,5,6.0,6.0,96,0.00,,,0.00,VWS V14.00,2013-04-11 06:29:00,
2013-04-11 01:34:00,32.5,31.5,29.76,North,5,6.0,6.0,96,0.00,,,0.00,VWS V14.00,2013-04-11 06:34:00,
2013-04-11 01:39:00,32.5,31.5,29.75,North,5,6.0,6.0,96,0.00,,,0.00,VWS V14.00,2013-04-11 06:39:00,
2013-04-11 01:44:00,32.4,31.4,29.75,North,5,6.0,6.0,96,0.00,,,0.00,VWS V14.00,2013-04-11 06:44:00,
2013-04-11 01:49:00,32.4,31.4,29.75,North,5,6.0,6.0,96,0.00,,,0.00,VWS V14.00,2013-04-11 06:49:00,
2013-04-11 01:55:00,32.4,31.1,29.75,North,5,6.0,6.0,95,0.00,,,0.00,VWS V14.00,2013-04-11 06:55:00,
2013-04-11 02:00:00,32.4,31.1,29.74,North,5,6.0,6.0,95,0.00,,,0.00,VWS V14.00,2013-04-11 07:00:00,
2013-04-11 02:05:00,32.4,31.4,29.74,North,5,6.0,6.0,96,0.00,,,0.00,VWS V14.00,2013-04-11 07:05:00,
2013-04-11 02:10:00,32.3,31.0,29.74,North,5,6.0,6.0,95,0.00,,,0.00,VWS V14.00,2013-04-11 07:10:00,
2013-04-11 02:15:00,32.3,31.0,29.74,North,5,6.0,6.0,95,0.00,,,0.00,VWS V14.00,2013-04-11 07:15:00,
2013-04-11 02:20:00,32.3,31.0,29.74,North,5,6.0,6.0,95,0.00,,,0.00,VWS V14.00,2013-04-11 07:20:00,
2013-04-11 02:25:00,32.3,31.0,29.74,North,5,6.0,6.0,95,0.00,,,0.00,VWS V14.00,2013-04-11 07:25:00,
2013-04-11 02:30:00,32.3,31.0,29.73,North,5,6.0,6.0,95,0.00,,,0.00,VWS V14.00,2013-04-11 07:30:00,
2013-04-11 02:35:00,32.3,31.0,29.73,North,5,6.0,6.0,95,0.00,,,0.00,VWS V14.00,2013-04-11 07:35:00,
2013-04-11 02:40:00,32.2,30.9,29.73,North,5,6.0,6.0,95,0.00,,,0.00,VWS V14.00,2013-04-11 07:40:00,
2013-04-11 02:45:00,32.2,30.9,29.73,North,5,6.0,6.0,95,0.00,,,0.00,VWS V14.00,2013-04-11 07:45:00,
2013-04-11 02:50:00,32.3,31.0,29.73,North,5,6.0,6.0,95,0.00,,,0.00,VWS V14.00,2013-04-11 07:50:00,
2013-04-11 02:55:00,32.2,30.9,29.72,North,5,6.0,6.0,95,0.00,,,0.00,VWS V14.00,2013-04-11 07:55:00,
2013-04-11 03:00:00,32.2,30.9,29.72,North,5,6.0,6.0,95,0.00,,,0.00,VWS V14.00,2013-04-11 08:00:00,
2013-04-11 03:05:00,32.2,30.9,29.72,North,5,6.0,6.0,95,0.00,,,0.00,VWS V14.00,2013-04-11 08:05:00,
2013-04-11 03:10:00,32.0,30.7,29.72,North,5,6.0,6.0,95,0.00,,,0.00,VWS V14.00,2013-04-11 08:10:00,
2013-04-11 03:15:00,32.0,30.7,29.71,North,5,6.0,6.0,95,0.00,,,0.00,VWS V14.00,2013-04-11 08:15:00,
2013-04-11 03:20:00,31.9,30.6,29.71,North,5,6.0,6.0,95,0.00,,,0.00,VWS V14.00,2013-04-11 08:20:00,
2013-04-11 03:25:00,31.9,30.6,29.71,North,5,6.0,6.0,95,0.00,,,0.00,VWS V14.00,2013-04-11 08:25:00,
2013-04-11 03:30:00,31.9,30.6,29.70,North,5,6.0,6.0,95,0.00,,,0.00,VWS V14.00,2013-04-11 08:30:00,
2013-04-11 03:35:00,31.8,30.5,29.70,North,5,6.0,6.0,95,0.00,,,0.00,VWS V14.00,2013-04-11 08:35:00,
2013-04-11 03:41:00,31.8,30.5,29.70,North,5,6.0,6.0,95,0.00,,,0.00,VWS V14.00,2013-04-11 08:41:00,
2013-04-11 03:47:00,31.8,30.5,29.70,North,5,6.0,6.0,95,0.00,,,0.00,VWS V14.00,2013-04-11 08:47:00,
2013-04-11 03:52:00,31.7,30.4,29.70,North,5,6.0,6.0,95,0.00,,,0.00,VWS V14.00,2013-04-11 08:52:00,
2013-04-11 03:57:00,31.8,30.5,29.70,North,5,6.0,6.0,95,0.00,,,0.00,VWS V14.00,2013-04-11 08:57:00,
2013-04-11 04:02:00,31.8,30.5,29.69,North,5,6.0,6.0,95,0.00,,,0.00,VWS V14.00,2013-04-11 09:02:00,
2013-04-11 04:07:00,31.8,30.5,29.69,North,5,6.0,6.0,95,0.00,,,0.00,VWS V14.00,2013-04-11 09:07:00,
2013-04-11 04:12:00,31.7,30.4,29.69,North,5,6.0,6.0,95,0.00,,,0.00,VWS V14.00,2013-04-11 09:12:00,
2013-04-11 04:17:00,31.7,30.4,29.69,North,5,6.0,6.0,95,0.00,,,0.00,VWS V14.00,2013-04-11 09:17:00,
2013-04-11 04:22:00,31.7,30.4,29.69,North,5,6.0,6.0,95,0.00,,,0.00,VWS V14.00,2013-04-11 09:22:00,
2013-04-11 04:28:00,31.7,30.4,29.68,North,5,6.0,6.0,95,0.00,,,0.00,VWS V14.00,2013-04-11 09:28:00,
2013-04-11 04:33:00,31.7,30.4,29.68,North,5,6.0,6.0,95,0.00,,,0.00,VWS V14.00,2013-04-11 09:33:00,
2013-04-11 04:38:00,31.7,30.4,29.67,North,5,6.0,6.0,95,0.00,,,0.00,VWS V14.00,2013-04-11 09:38:00,
2013-04-11 04:43:00,31.6,30.3,29.67,North,5,6.0,6.0,95,0.00,,,0.00,VWS V14.00,2013-04-11 09:43:00,
2013-04-11 04:48:00,31.7,30.4,29.67,North,5,6.0,6.0,95,0.00,,,0.00,VWS V14.00,2013-04-11 09:48:00,
2013-04-11 04:53:00,31.6,30.1,29.67,North,5,6.0,6.0,94,0.00,,,0.00,VWS V14.00,2013-04-11 09:53:00,
2013-04-11 04:58:00,31.6,30.1,29.66,North,5,6.0,6.0,94,0.00,,,0.00,VWS V14.00,2013-04-11 09:58:00,
2013-04-11 05:03:00,31.6,30.3,29.66,North,5,6.0,6.0,95,0.00,,,0.00,VWS V14.00,2013-04-11 10:03:00,
2013-04-11 05:08:00,31.6,30.1,29.66,North,5,6.0,6.0,94,0.00,,,0.00,VWS V14.00,2013-04-11 10:08:00,
2013-04-11 05:13:00,31.6,30.1,29.65,North,5,6.0,6.0,94,0.00,,,0.00,VWS V14.00,2013-04-11 10:13:00,
2013-04-11 05:18:00,31.5,30.0,29.65,North,5,6.0,6.0,94,0.00,,,0.00,VWS V14.00,2013-04-11 10:18:00,
2013-04-11 05:23:00,31.5,30.0,29.65,North,5,6.0,6.0,94,0.00,,,0.00,VWS V14.00,2013-04-11 10:23:00,
2013-04-11 05:28:00,31.4,29.9,29.65,North,5,6.0,6.0,94,0.00,,,0.00,VWS V14.00,2013-04-11 10:28:00,
2013-04-11 05:33:00,31.4,29.9,29.65,North,5,6.0,6.0,94,0.00,,,0.00,VWS V14.00,2013-04-11 10:33:00,
2013-04-11 05:38:00,31.4,29.9,29.65,North,5,6.0,6.0,94,0.00,,,0.00,VWS V14.00,2013-04-11 10:38:00,
2013-04-11 05:43:00,31.4,29.9,29.65,North,5,6.0,6.0,94,0.00,,,0.00,VWS V14.00,2013-04-11 10:43:00,
2013-04-11 05:48:00,31.3,29.8,29.65,North,5,6.0,6.0,94,0.00,,,0.00,VWS V14.00,2013-04-11 10:48:00,
2013-04-11 05:54:00,31.3,29.8,29.65,North,5,6.0,6.0,94,0.00,,,0.00,VWS V14.00,2013-04-11 10:54:00,
2013-04-11 05:59:00,31.3,29.8,29.66,North,5,6.0,6.0,94,0.00,,,0.00,VWS V14.00,2013-04-11 10:59:00,
2013-04-11 06:04:00,31.3,29.8,29.66,North,5,6.0,6.0,94,0.00,,,0.00,VWS V14.00,2013-04-11 11:04:00,
2013-04-11 06:09:00,31.2,29.7,29.66,North,5,6.0,6.0,94,0.00,,,0.00,VWS V14.00,2013-04-11 11:09:00,
2013-04-11 06:14:00,31.2,29.7,29.66,North,5,6.0,6.0,94,0.00,,,0.00,VWS V14.00,2013-04-11 11:14:00,
2013-04-11 06:19:00,31.1,29.3,29.67,North,5,6.0,6.0,93,0.00,,,0.00,VWS V14.00,2013-04-11 11:19:00,
2013-04-11 06:24:00,31.0,29.5,29.66,North,5,6.0,6.0,94,0.00,,,0.00,VWS V14.00,2013-04-11 11:24:00,
2013-04-11 06:29:00,31.1,29.6,29.66,North,5,6.0,6.0,94,0.00,,,0.00,VWS V14.00,2013-04-11 11:29:00,
2013-04-11 06:34:00,31.0,29.5,29.66,North,5,6.0,6.0,94,0.00,,,0.00,VWS V14.00,2013-04-11 11:34:00,
2013-04-11 06:39:00,30.9,29.1,29.66,North,5,6.0,6.0,93,0.00,,,0.00,VWS V14.00,2013-04-11 11:39:00,
2013-04-11 06:44:00,30.9,29.1,29.66,North,5,6.0,6.0,93,0.00,,,0.00,VWS V14.00,2013-04-11 11:44:00,
2013-04-11 06:49:00,30.8,29.0,29.65,North,5,6.0,6.0,93,0.00,,,0.00,VWS V14.00,2013-04-11 11:49:00,
2013-04-11 06:54:00,30.7,28.9,29.66,North,5,6.0,6.0,93,0.00,,,0.00,VWS V14.00,2013-04-11 11:54:00,
2013-04-11 07:00:00,30.7,28.9,29.66,North,5,6.0,6.0,93,0.00,,,0.00,VWS V14.00,2013-04-11 12:00:00,
2013-04-11 07:05:00,30.6,28.8,29.67,North,5,6.0,6.0,93,0.00,,,0.00,VWS V14.00,2013-04-11 12:05:00,
2013-04-11 07:10:00,30.6,28.8,29.67,North,5,6.0,6.0,93,0.00,,,0.00,VWS V14.00,2013-04-11 12:10:00,
2013-04-11 07:15:00,30.5,28.7,29.67,North,5,6.0,6.0,93,0.00,,,0.00,VWS V14.00,2013-04-11 12:15:00,
2013-04-11 07:20:00,30.5,28.7,29.67,North,5,6.0,6.0,93,0.00,,,0.00,VWS V14.00,2013-04-11 12:20:00,
2013-04-11 07:25:00,30.6,28.8,29.67,North,5,6.0,6.0,93,0.00,,,0.00,VWS V14.00,2013-04-11 12:25:00,
2013-04-11 07:30:00,30.6,28.8,29.67,North,5,6.0,6.0,93,0.00,,,0.00,VWS V14.00,2013-04-11 12:30:00,
2013-04-11 07:35:00,30.5,28.7,29.67,North,5,6.0,6.0,93,0.00,,,0.00,VWS V14.00,2013-04-11 12:35:00,
2013-04-11 07:40:00,30.5,28.7,29.67,North,5,6.0,6.0,93,0.00,,,0.00,VWS V14.00,2013-04-11 12:40:00,
2013-04-11 07:46:00,30.5,28.7,29.66,North,5,6.0,6.0,93,0.00,,,0.00,VWS V14.00,2013-04-11 12:46:00,
2013-04-11 07:51:00,30.5,28.7,29.66,North,5,6.0,6.0,93,0.00,,,0.00,VWS V14.00,2013-04-11 12:51:00,
2013-04-11 07:56:00,30.6,28.8,29.66,North,5,6.0,6.0,93,0.00,,,0.00,VWS V14.00,2013-04-11 12:56:00,
2013-04-11 08:01:00,30.6,28.8,29.66,North,5,6.0,6.0,93,0.00,,,0.00,VWS V14.00,2013-04-11 13:01:00,
2013-04-11 08:06:00,30.6,28.8,29.67,North,5,6.0,6.0,93,0.00,,,0.00,VWS V14.00,2013-04-11 13:06:00,
2013-04-11 08:12:00,30.7,28.9,29.67,North,5,6.0,6.0,93,0.00,,,0.00,VWS V14.00,2013-04-11 13:12:00,
2013-04-11 08:17:00,30.7,28.9,29.67,North,5,6.0,6.0,93,0.00,,,0.00,VWS V14.00,2013-04-11 13:17:00,
2013-04-11 08:22:00,30.8,29.0,29.67,North,5,6.0,6.0,93,0.00,,,0.00,VWS V14.00,2013-04-11 13:22:00,
2013-04-11 08:27:00,30.8,29.0,29.66,North,5,6.0,6.0,93,0.00,,,0.00,VWS V14.00,2013-04-11 13:27:00,
2013-04-11 08:32:00,30.8,28.8,29.66,North,5,6.0,6.0,92,0.00,,,0.00,VWS V14.00,2013-04-11 13:32:00,
2013-04-11 08:37:00,30.8,28.8,29.66,North,5,6.0,6.0,92,0.00,,,0.00,VWS V14.00,2013-04-11 13:37:00,
2013-04-11 08:42:00,30.8,28.8,29.67,North,5,6.0,6.0,92,0.00,,,0.00,VWS V14.00,2013-04-11 13:42:00,
2013-04-11 08:47:00,30.8,28.8,29.66,North,5,6.0,6.0,92,0.00,,,0.00,VWS V14.00,2013-04-11 13:47:00,
2013-04-11 08:52:00,30.8,28.8,29.66,North,5,6.0,6.0,92,0.00,,,0.00,VWS V14.00,2013-04-11 13:52:00,
2013-04-11 08:58:00,30.9,28.6,29.66,North,5,6.0,6.0,91,0.00,,,0.00,VWS V14.00,2013-04-11 13:58:00,
2013-04-11 09:03:00,31.0,28.7,29.66,NNW,338,0.0,6.0,91,0.00,,,0.00,VWS V14.00,2013-04-11 14:03:00,
2013-04-11 09:08:00,31.1,28.8,29.66,NNW,338,0.0,10.0,91,0.00,,,0.00,VWS V14.00,2013-04-11 14:08:00,
2013-04-11 09:13:00,31.2,28.9,29.66,NNW,338,0.0,10.0,91,0.00,,,0.00,VWS V14.00,2013-04-11 14:13:00,
2013-04-11 09:18:00,31.4,29.1,29.66,WNW,298,2.0,10.0,91,0.00,,,0.00,VWS V14.00,2013-04-11 14:18:00,
2013-04-11 09:23:00,31.5,29.2,29.66,NW,306,0.0,10.0,91,0.00,,,0.00,VWS V14.00,2013-04-11 14:23:00,
2013-04-11 09:28:00,31.7,29.1,29.66,NW,314,2.0,8.0,90,0.00,,,0.00,VWS V14.00,2013-04-11 14:28:00,
2013-04-11 09:34:00,31.8,29.2,29.66,NW,311,5.0,8.0,90,0.00,,,0.00,VWS V14.00,2013-04-11 14:34:00,
2013-04-11 09:39:00,31.9,29.3,29.66,NW,304,0.0,12.0,90,0.00,,,0.00,VWS V14.00,2013-04-11 14:39:00,
2013-04-11 09:44:00,32.0,29.4,29.66,NW,304,2.0,12.0,90,0.00,,,0.00,VWS V14.00,2013-04-11 14:44:00,
2013-04-11 09:49:00,31.9,29.0,29.66,WNW,291,2.0,12.0,89,0.00,,,0.00,VWS V14.00,2013-04-11 14:49:00,
2013-04-11 09:54:00,32.0,29.4,29.66,WNW,291,6.0,12.0,90,0.00,,,0.00,VWS V14.00,2013-04-11 14:54:00,
2013-04-11 09:59:00,32.0,29.1,29.65,WNW,291,0.0,7.0,89,0.00,,,0.00,VWS V14.00,2013-04-11 14:59:00,
2013-04-11 10:04:00,32.0,29.4,29.65,WNW,291,0.0,7.0,90,0.00,,,0.00,VWS V14.00,2013-04-11 15:04:00,
2013-04-11 10:10:00,32.1,29.5,29.66,WNW,291,0.0,7.0,90,0.00,,,0.00,VWS V14.00,2013-04-11 15:10:00,
2013-04-11 10:15:00,32.1,29.2,29.66,WNW,291,2.0,8.0,89,0.00,,,0.00,VWS V14.00,2013-04-11 15:15:00,
2013-04-11 10:20:00,32.2,29.3,29.66,WNW,291,2.0,8.0,89,0.00,,,0.00,VWS V14.00,2013-04-11 15:20:00,
2013-04-11 10:25:00,32.3,29.4,29.66,WNW,291,5.0,8.0,89,0.00,,,0.00,VWS V14.00,2013-04-11 15:25:00,
2013-04-11 10:30:00,32.5,29.9,29.66,WNW,291,0.0,9.0,90,0.01,,,0.01,VWS V14.00,2013-04-11 15:30:00,
2013-04-11 10:36:00,32.7,30.1,29.66,WNW,291,0.0,9.0,90,0.01,,,0.01,VWS V14.00,2013-04-11 15:36:00,
2013-04-11 10:41:00,33.0,30.4,29.66,NW,307,2.0,9.0,90,0.01,,,0.01,VWS V14.00,2013-04-11 15:41:00,
2013-04-11 10:47:00,33.2,30.3,29.66,NW,308,7.0,9.0,89,0.01,,,0.01,VWS V14.00,2013-04-11 15:47:00,
2013-04-11 10:52:00,33.2,30.3,29.66,NW,324,0.0,14.0,89,0.02,,,0.02,VWS V14.00,2013-04-11 15:52:00,
2013-04-11 10:57:00,33.2,30.3,29.66,WNW,297,0.0,14.0,89,0.02,,,0.02,VWS V14.00,2013-04-11 15:57:00,
2013-04-11 11:02:00,33.2,30.3,29.66,NW,306,2.0,12.0,89,0.02,,,0.02,VWS V14.00,2013-04-11 16:02:00,
2013-04-11 11:07:00,33.2,30.3,29.66,NW,323,5.0,12.0,89,0.02,,,0.02,VWS V14.00,2013-04-11 16:07:00,
2013-04-11 11:12:00,33.3,30.4,29.66,WNW,297,4.0,13.0,89,0.02,,,0.02,VWS V14.00,2013-04-11 16:12:00,
2013-04-11 11:18:00,33.2,30.0,29.66,West,270,0.0,13.0,88,0.02,,,0.02,VWS V14.00,2013-04-11 16:18:00,
2013-04-11 11:23:00,33.1,29.9,29.66,WNW,298,0.0,13.0,88,0.02,,,0.02,VWS V14.00,2013-04-11 16:23:00,
2013-04-11 11:28:00,33.2,30.3,29.66,NNW,330,9.0,14.0,89,0.02,,,0.02,VWS V14.00,2013-04-11 16:28:00,
2013-04-11 11:33:00,33.3,30.4,29.65,WNW,299,1.0,13.0,89,0.01,,,0.02,VWS V14.00,2013-04-11 16:33:00,
2013-04-11 11:38:00,33.3,30.4,29.66,NW,305,7.0,13.0,89,0.01,,,0.02,VWS V14.00,2013-04-11 16:38:00,
2013-04-11 11:43:00,33.3,30.4,29.66,NNW,334,6.0,13.0,89,0.02,,,0.03,VWS V14.00,2013-04-11 16:43:00,
2013-04-11 11:48:00,33.3,30.4,29.65,NNW,328,10.0,14.0,89,0.02,,,0.03,VWS V14.00,2013-04-11 16:48:00,
2013-04-11 11:53:00,33.3,30.4,29.65,NW,304,8.0,14.0,89,0.02,,,0.03,VWS V14.00,2013-04-11 16:53:00,
2013-04-11 11:58:00,33.3,30.4,29.65,NW,313,5.0,6.0,89,0.01,,,0.03,VWS V14.00,2013-04-11 16:58:00,
2013-04-11 12:04:00,33.4,30.5,29.65,NW,312,6.0,12.0,89,0.01,,,0.03,VWS V14.00,2013-04-11 17:04:00,
2013-04-11 12:09:00,33.4,30.5,29.64,NW,313,1.0,12.0,89,0.01,,,0.03,VWS V14.00,2013-04-11 17:09:00,
2013-04-11 12:14:00,33.4,30.5,29.65,NNW,331,5.0,13.0,89,0.01,,,0.03,VWS V14.00,2013-04-11 17:14:00,
2013-04-11 12:19:00,33.4,30.5,29.65,NW,326,1.0,15.0,89,0.01,,,0.03,VWS V14.00,2013-04-11 17:19:00,
2013-04-11 12:24:00,33.4,30.5,29.65,NW,309,0.0,15.0,89,0.01,,,0.03,VWS V14.00,2013-04-11 17:24:00,
2013-04-11 12:29:00,33.5,30.6,29.65,NW,311,0.0,9.0,89,0.01,,,0.03,VWS V14.00,2013-04-11 17:29:00,
2013-04-11 12:34:00,33.5,30.6,29.65,NW,305,0.0,14.0,89,0.02,,,0.04,VWS V14.00,2013-04-11 17:34:00,
2013-04-11 12:39:00,33.6,30.7,29.65,NW,316,1.0,14.0,89,0.02,,,0.04,VWS V14.00,2013-04-11 17:39:00,
2013-04-11 12:44:00,33.7,30.8,29.65,NW,315,6.0,14.0,89,0.02,,,0.04,VWS V14.00,2013-04-11 17:44:00,
2013-04-11 12:50:00,33.8,30.9,29.65,WNW,302,0.0,14.0,89,0.02,,,0.04,VWS V14.00,2013-04-11 17:50:00,
2013-04-11 12:55:00,33.7,30.8,29.65,NW,305,6.0,14.0,89,0.02,,,0.04,VWS V14.00,2013-04-11 17:55:00,
2013-04-11 13:00:00,33.8,30.9,29.65,WNW,303,8.0,8.0,89,0.01,,,0.04,VWS V14.00,2013-04-11 18:00:00,
2013-04-11 13:05:00,33.8,31.2,29.65,NW,313,5.0,11.0,90,0.01,,,0.04,VWS V14.00,2013-04-11 18:05:00,
2013-04-11 13:10:00,33.9,31.3,29.65,NW,320,1.0,11.0,90,0.01,,,0.04,VWS V14.00,2013-04-11 18:10:00,
2013-04-11 13:15:00,34.1,31.5,29.64,NW,319,1.0,11.0,90,0.01,,,0.04,VWS V14.00,2013-04-11 18:15:00,
2013-04-11 13:20:00,34.1,31.5,29.64,NW,323,0.0,11.0,90,0.01,,,0.04,VWS V14.00,2013-04-11 18:20:00,
2013-04-11 13:25:00,34.1,31.5,29.64,NW,312,5.0,11.0,90,0.01,,,0.04,VWS V14.00,2013-04-11 18:25:00,
2013-04-11 13:31:00,34.2,31.6,29.64,NW,310,4.0,8.0,90,0.01,,,0.04,VWS V14.00,2013-04-11 18:31:00,
2013-04-11 13:36:00,34.3,32.0,29.64,NW,311,4.0,12.0,91,0.01,,,0.04,VWS V14.00,2013-04-11 18:36:00,
2013-04-11 13:42:00,34.5,32.2,29.64,WNW,303,11.0,14.0,91,0.01,,,0.04,VWS V14.00,2013-04-11 18:42:00,
2013-04-11 13:47:00,34.6,32.5,29.64,NW,306,4.0,14.0,92,0.01,,,0.04,VWS V14.00,2013-04-11 18:47:00,
2013-04-11 13:52:00,34.7,32.6,29.64,WNW,301,4.0,14.0,92,0.02,,,0.05,VWS V14.00,2013-04-11 18:52:00,
2013-04-11 13:57:00,35.0,33.2,29.64,NW,306,5.0,14.0,93,0.02,,,0.05,VWS V14.00,2013-04-11 18:57:00,
2013-04-11 14:02:00,35.2,33.4,29.64,WNW,294,0.0,13.0,93,0.01,,,0.05,VWS V14.00,2013-04-11 19:02:00,
2013-04-11 14:07:00,35.3,33.2,29.63,NW,326,6.0,14.0,92,0.01,,,0.05,VWS V14.00,2013-04-11 19:07:00,
2013-04-11 14:13:00,35.4,33.3,29.63,NW,319,0.0,14.0,92,0.01,,,0.05,VWS V14.00,2013-04-11 19:13:00,
2013-04-11 14:18:00,35.7,33.6,29.63,NW,325,0.0,14.0,92,0.02,,,0.06,VWS V14.00,2013-04-11 19:18:00,
2013-04-11 14:23:00,35.6,33.5,29.63,NW,305,4.0,14.0,92,0.02,,,0.06,VWS V14.00,2013-04-11 19:23:00,
2013-04-11 14:28:00,35.5,33.4,29.63,NW,304,0.0,0.0,92,0.02,,,0.06,VWS V14.00,2013-04-11 19:28:00,
2013-04-11 14:33:00,35.5,33.4,29.63,NW,325,0.0,12.0,92,0.02,,,0.06,VWS V14.00,2013-04-11 19:33:00,
2013-04-11 14:38:00,35.3,32.9,29.63,NW,319,0.0,12.0,91,0.02,,,0.06,VWS V14.00,2013-04-11 19:38:00,
2013-04-11 14:43:00,35.3,32.9,29.63,WNW,303,7.0,16.0,91,0.02,,,0.06,VWS V14.00,2013-04-11 19:43:00,
2013-04-11 14:49:00,35.6,33.5,29.62,NW,323,8.0,17.0,92,0.02,,,0.06,VWS V14.00,2013-04-11 19:49:00,
2013-04-11 14:54:00,36.0,33.9,29.63,NW,320,5.0,17.0,92,0.02,,,0.06,VWS V14.00,2013-04-11 19:54:00,
2013-04-11 14:59:00,36.3,34.2,29.63,NW,309,1.0,13.0,92,0.01,,,0.06,VWS V14.00,2013-04-11 19:59:00,
2013-04-11 15:04:00,36.3,33.9,29.63,NW,313,9.0,14.0,91,0.01,,,0.06,VWS V14.00,2013-04-11 20:04:00,
2013-04-11 15:09:00,36.5,34.1,29.64,NW,317,8.0,14.0,91,0.01,,,0.06,VWS V14.00,2013-04-11 20:09:00,
2013-04-11 15:14:00,36.7,34.3,29.64,NW,313,7.0,14.0,91,0.02,,,0.07,VWS V14.00,2013-04-11 20:14:00,
2013-04-11 15:19:00,36.8,34.4,29.64,NW,319,11.0,14.0,91,0.02,,,0.07,VWS V14.00,2013-04-11 20:19:00,
2013-04-11 15:24:00,36.8,34.2,29.64,NW,321,0.0,14.0,90,0.02,,,0.07,VWS V14.00,2013-04-11 20:24:00,
2013-04-11 15:29:00,36.6,34.0,29.64,WNW,297,8.0,8.0,90,0.01,,,0.07,VWS V14.00,2013-04-11 20:29:00,
2013-04-11 15:34:00,36.4,34.0,29.64,WNW,290,0.0,9.0,91,0.01,,,0.07,VWS V14.00,2013-04-11 20:34:00,
2013-04-11 15:39:00,36.4,34.0,29.64,NW,317,5.0,14.0,91,0.01,,,0.07,VWS V14.00,2013-04-11 20:39:00,
2013-04-11 15:45:00,36.6,34.2,29.64,WNW,302,11.0,18.0,91,0.01,,,0.07,VWS V14.00,2013-04-11 20:45:00,
2013-04-11 15:50:00,36.7,34.3,29.64,WNW,303,0.0,18.0,91,0.01,,,0.07,VWS V14.00,2013-04-11 20:50:00,
2013-04-11 15:55:00,36.7,34.3,29.63,NW,322,5.0,18.0,91,0.01,,,0.07,VWS V14.00,2013-04-11 20:55:00,
2013-04-11 16:00:00,37.0,34.9,29.64,NW,321,2.0,9.0,92,0.01,,,0.07,VWS V14.00,2013-04-11 21:00:00,
2013-04-11 16:05:00,37.2,35.1,29.64,NW,325,6.0,17.0,92,0.01,,,0.07,VWS V14.00,2013-04-11 21:05:00,
2013-04-11 16:10:00,37.3,34.9,29.63,NNW,338,6.0,20.0,91,0.01,,,0.07,VWS V14.00,2013-04-11 21:10:00,
2013-04-11 16:15:00,37.6,35.2,29.63,NNW,330,2.0,20.0,91,0.01,,,0.07,VWS V14.00,2013-04-11 21:15:00,
2013-04-11 16:20:00,37.9,35.2,29.63,NNW,331,1.0,20.0,90,0.01,,,0.07,VWS V14.00,2013-04-11 21:20:00,
2013-04-11 16:26:00,38.1,35.2,29.63,NNW,346,9.0,20.0,89,0.01,,,0.07,VWS V14.00,2013-04-11 21:26:00,
2013-04-11 16:31:00,38.0,34.5,29.64,NW,325,7.0,13.0,87,0.00,,,0.07,VWS V14.00,2013-04-11 21:31:00,
2013-04-11 16:37:00,37.8,34.3,29.64,NW,315,1.0,13.0,87,0.00,,,0.07,VWS V14.00,2013-04-11 21:37:00,
2013-04-11 16:43:00,37.6,34.4,29.64,NW,324,0.0,13.0,88,0.00,,,0.07,VWS V14.00,2013-04-11 21:43:00,
2013-04-11 16:48:00,37.4,34.2,29.64,NNW,327,7.0,14.0,88,0.00,,,0.07,VWS V14.00,2013-04-11 21:48:00,
2013-04-11 16:53:00,37.2,34.0,29.64,NW,319,2.0,14.0,88,0.00,,,0.07,VWS V14.00,2013-04-11 21:53:00,
2013-04-11 16:58:00,37.1,34.2,29.64,NW,313,0.0,2.0,89,0.00,,,0.07,VWS V14.00,2013-04-11 21:58:00,
2013-04-11 17:03:00,37.0,34.1,29.64,NW,304,12.0,14.0,89,0.00,,,0.07,VWS V14.00,2013-04-11 22:03:00,
2013-04-11 17:08:00,37.0,34.1,29.64,NW,325,4.0,14.0,89,0.00,,,0.07,VWS V14.00,2013-04-11 22:08:00,
2013-04-11 17:14:00,37.0,34.1,29.64,NW,322,0.0,14.0,89,0.00,,,0.07,VWS V14.00,2013-04-11 22:14:00,
2013-04-11 17:19:00,37.1,34.4,29.64,NW,319,0.0,14.0,90,0.00,,,0.07,VWS V14.00,2013-04-11 22:19:00,
2013-04-11 17:24:00,37.1,34.2,29.64,NW,307,9.0,15.0,89,0.00,,,0.07,VWS V14.00,2013-04-11 22:24:00,
2013-04-11 17:29:00,37.0,34.1,29.64,NW,318,8.0,11.0,89,0.00,,,0.07,VWS V14.00,2013-04-11 22:29:00,
2013-04-11 17:34:00,36.8,33.9,29.64,NW,314,5.0,15.0,89,0.00,,,0.07,VWS V14.00,2013-04-11 22:34:00,
2013-04-11 17:39:00,36.8,34.2,29.64,NW,319,12.0,15.0,90,0.00,,,0.07,VWS V14.00,2013-04-11 22:39:00,
2013-04-11 17:44:00,36.7,34.0,29.64,NNW,331,0.0,15.0,90,0.00,,,0.07,VWS V14.00,2013-04-11 22:44:00,
2013-04-11 17:49:00,36.6,33.7,29.64,NNW,327,1.0,15.0,89,0.00,,,0.07,VWS V14.00,2013-04-11 22:49:00,
2013-04-11 17:54:00,36.5,33.6,29.64,NNW,338,0.0,15.0,89,0.00,,,0.07,VWS V14.00,2013-04-11 22:54:00,
2013-04-11 17:59:00,36.5,33.6,29.64,NNW,338,0.0,0.0,89,0.00,,,0.07,VWS V14.00,2013-04-11 22:59:00,
2013-04-11 18:04:00,36.5,33.6,29.64,NNW,338,0.0,0.0,89,0.00,,,0.07,VWS V14.00,2013-04-11 23:04:00,
2013-04-11 18:09:00,36.4,33.2,29.64,NNW,338,0.0,0.0,88,0.00,,,0.07,VWS V14.00,2013-04-11 23:09:00,
2013-04-11 18:14:00,36.4,33.2,29.64,NNW,338,0.0,0.0,88,0.00,,,0.07,VWS V14.00,2013-04-11 23:14:00,
2013-04-11 18:19:00,36.3,33.4,29.64,NNW,338,0.0,0.0,89,0.00,,,0.07,VWS V14.00,2013-04-11 23:19:00,
2013-04-11 18:24:00,36.3,33.4,29.64,NNW,338,0.0,0.0,89,0.00,,,0.07,VWS V14.00,2013-04-11 23:24:00,
2013-04-11 18:29:00,36.3,33.4,29.65,NNW,338,0.0,0.0,89,0.00,,,0.07,VWS V14.00,2013-04-11 23:29:00,
2013-04-11 18:35:00,36.3,33.4,29.64,NNW,338,0.0,0.0,89,0.00,,,0.07,VWS V14.00,2013-04-11 23:35:00,
2013-04-11 18:40:00,36.1,33.2,29.64,NNW,338,0.0,0.0,89,0.00,,,0.07,VWS V14.00,2013-04-11 23:40:00,
2013-04-11 18:45:00,36.1,33.2,29.65,NNW,338,0.0,0.0,89,0.00,,,0.07,VWS V14.00,2013-04-11 23:45:00,
2013-04-11 18:50:00,36.0,32.8,29.65,NNW,338,0.0,0.0,88,0.00,,,0.07,VWS V14.00,2013-04-11 23:50:00,
2013-04-11 18:55:00,35.9,32.7,29.65,NNW,338,0.0,0.0,88,0.00,,,0.07,VWS V14.00,2013-04-11 23:55:00,
2013-04-11 19:00:00,35.9,32.7,29.65,NNW,338,0.0,0.0,88,0.00,,,0.07,VWS V14.00,2013-04-12 00:00:00,
2013-04-11 19:06:00,35.8,32.6,29.65,NNW,338,0.0,0.0,88,0.00,,,0.07,VWS V14.00,2013-04-12 00:06:00,
2013-04-11 19:11:00,35.7,32.5,29.65,NNW,338,0.0,0.0,88,0.00,,,0.07,VWS V14.00,2013-04-12 00:11:00,
2013-04-11 19:17:00,35.7,32.5,29.66,NNW,338,0.0,0.0,88,0.00,,,0.07,VWS V14.00,2013-04-12 00:17:00,
2013-04-11 19:22:00,35.6,32.4,29.66,NNW,338,0.0,0.0,88,0.00,,,0.07,VWS V14.00,2013-04-12 00:22:00,
2013-04-11 19:27:00,35.5,32.3,29.66,NNW,338,0.0,0.0,88,0.00,,,0.07,VWS V14.00,2013-04-12 00:27:00,
2013-04-11 19:32:00,35.5,32.3,29.66,NNW,338,0.0,0.0,88,0.00,,,0.07,VWS V14.00,2013-04-12 00:32:00,
2013-04-11 19:37:00,35.4,32.2,29.66,NNW,338,0.0,0.0,88,0.00,,,0.07,VWS V14.00,2013-04-12 00:37:00,
2013-04-11 19:42:00,35.3,32.4,29.66,NNW,338,0.0,0.0,89,0.00,,,0.07,VWS V14.00,2013-04-12 00:42:00,
2013-04-11 19:47:00,35.2,32.0,29.66,NNW,338,0.0,0.0,88,0.00,,,0.07,VWS V14.00,2013-04-12 00:47:00,
2013-04-11 19:52:00,35.1,31.6,29.66,NNW,338,0.0,0.0,87,0.00,,,0.07,VWS V14.00,2013-04-12 00:52:00,
2013-04-11 19:57:00,35.0,31.5,29.66,NNW,338,0.0,0.0,87,0.00,,,0.07,VWS V14.00,2013-04-12 00:57:00,
2013-04-11 20:02:00,35.0,31.5,29.67,NNW,338,0.0,0.0,87,0.00,,,0.07,VWS V14.00,2013-04-12 01:02:00,
2013-04-11 20:07:00,35.0,31.5,29.67,NNW,338,0.0,0.0,87,0.00,,,0.07,VWS V14.00,2013-04-12 01:07:00,
2013-04-11 20:13:00,34.9,31.4,29.67,NNW,338,0.0,0.0,87,0.00,,,0.07,VWS V14.00,2013-04-12 01:13:00,
2013-04-11 20:18:00,34.8,31.3,29.67,NNW,338,0.0,0.0,87,0.00,,,0.07,VWS V14.00,2013-04-12 01:18:00,
2013-04-11 20:23:00,34.8,31.3,29.67,NNW,338,0.0,0.0,87,0.00,,,0.07,VWS V14.00,2013-04-12 01:23:00,
2013-04-11 20:28:00,34.8,31.3,29.67,NNW,338,0.0,0.0,87,0.00,,,0.07,VWS V14.00,2013-04-12 01:28:00,
2013-04-11 20:33:00,34.7,31.5,29.67,NNW,338,0.0,0.0,88,0.00,,,0.07,VWS V14.00,2013-04-12 01:33:00,
2013-04-11 20:38:00,34.7,31.5,29.67,NNW,338,0.0,0.0,88,0.00,,,0.07,VWS V14.00,2013-04-12 01:38:00,
2013-04-11 20:43:00,34.6,31.1,29.67,NNW,338,0.0,0.0,87,0.00,,,0.07,VWS V14.00,2013-04-12 01:43:00,
2013-04-11 20:48:00,34.5,31.0,29.68,NNW,338,0.0,0.0,87,0.00,,,0.07,VWS V14.00,2013-04-12 01:48:00,
2013-04-11 20:53:00,34.4,30.9,29.67,NNW,338,0.0,0.0,87,0.00,,,0.07,VWS V14.00,2013-04-12 01:53:00,
2013-04-11 20:58:00,34.4,30.9,29.68,NNW,338,0.0,0.0,87,0.00,,,0.07,VWS V14.00,2013-04-12 01:58:00,
2013-04-11 21:03:00,34.3,30.6,29.68,NNW,338,0.0,0.0,86,0.00,,,0.07,VWS V14.00,2013-04-12 02:03:00,
2013-04-11 21:08:00,34.1,30.4,29.68,NNW,338,0.0,0.0,86,0.00,,,0.07,VWS V14.00,2013-04-12 02:08:00,
2013-04-11 21:13:00,34.1,30.4,29.68,NNW,338,0.0,0.0,86,0.00,,,0.07,VWS V14.00,2013-04-12 02:13:00,
2013-04-11 21:18:00,33.9,30.2,29.68,NNW,338,0.0,0.0,86,0.00,,,0.07,VWS V14.00,2013-04-12 02:18:00,
2013-04-11 21:23:00,33.8,30.1,29.68,NNW,338,0.0,0.0,86,0.00,,,0.07,VWS V14.00,2013-04-12 02:23:00,
2013-04-11 21:29:00,33.7,30.0,29.69,NNW,338,0.0,0.0,86,0.00,,,0.07,VWS V14.00,2013-04-12 02:29:00,
2013-04-11 21:34:00,33.7,30.2,29.69,NNW,338,0.0,0.0,87,0.00,,,0.07,VWS V14.00,2013-04-12 02:34:00,
2013-04-11 21:39:00,33.6,29.9,29.69,NNW,338,0.0,0.0,86,0.00,,,0.07,VWS V14.00,2013-04-12 02:39:00,
2013-04-11 21:44:00,33.5,30.0,29.69,NNW,338,0.0,0.0,87,0.00,,,0.07,VWS V14.00,2013-04-12 02:44:00,
2013-04-11 21:49:00,33.5,30.0,29.69,NNW,338,0.0,0.0,87,0.00,,,0.07,VWS V14.00,2013-04-12 02:49:00,
2013-04-11 21:54:00,33.5,30.0,29.69,NNW,338,0.0,0.0,87,0.00,,,0.07,VWS V14.00,2013-04-12 02:54:00,
2013-04-11 21:59:00,33.4,30.0,29.69,NNW,338,0.0,0.0,87,0.00,,,0.07,VWS V14.00,2013-04-12 02:59:00,
2013-04-11 22:04:00,33.4,30.0,29.70,NNW,338,0.0,0.0,87,0.00,,,0.07,VWS V14.00,2013-04-12 03:04:00,
2013-04-11 22:09:00,33.4,30.0,29.70,NNW,338,0.0,0.0,87,0.00,,,0.07,VWS V14.00,2013-04-12 03:09:00,
2013-04-11 22:14:00,33.4,30.0,29.70,NNW,338,0.0,0.0,87,0.00,,,0.07,VWS V14.00,2013-04-12 03:14:00,
2013-04-11 22:19:00,33.4,30.0,29.70,NNW,338,0.0,0.0,87,0.00,,,0.07,VWS V14.00,2013-04-12 03:19:00,
2013-04-11 22:25:00,33.4,30.0,29.70,NNW,338,0.0,0.0,87,0.00,,,0.07,VWS V14.00,2013-04-12 03:25:00,
2013-04-11 22:30:00,33.4,30.0,29.70,NNW,338,0.0,0.0,87,0.00,,,0.07,VWS V14.00,2013-04-12 03:30:00,
2013-04-11 22:35:00,33.4,30.0,29.70,NNW,338,0.0,0.0,87,0.00,,,0.07,VWS V14.00,2013-04-12 03:35:00,
2013-04-11 22:40:00,33.4,30.0,29.70,NNW,338,0.0,0.0,87,0.00,,,0.07,VWS V14.00,2013-04-12 03:40:00,
2013-04-11 22:45:00,33.3,29.9,29.71,NNW,338,0.0,0.0,87,0.00,,,0.07,VWS V14.00,2013-04-12 03:45:00,
2013-04-11 22:50:00,33.3,29.6,29.71,NNW,338,0.0,0.0,86,0.00,,,0.07,VWS V14.00,2013-04-12 03:50:00,
2013-04-11 22:55:00,33.2,29.5,29.71,NNW,338,0.0,0.0,86,0.00,,,0.07,VWS V14.00,2013-04-12 03:55:00,
2013-04-11 23:00:00,33.2,29.5,29.71,NNW,338,0.0,0.0,86,0.00,,,0.07,VWS V14.00,2013-04-12 04:00:00,
2013-04-11 23:01:00,33.2,29.5,29.71,NNW,338,0.0,0.0,86,0.00,,,0.07,VWS V14.00,2013-04-12 04:01:00,
2013-04-11 23:06:00,33.2,29.5,29.70,NNW,338,0.0,0.0,86,0.00,,,0.07,VWS V14.00,2013-04-12 04:06:00,
2013-04-11 23:07:00,33.2,29.5,29.70,NNW,338,0.0,0.0,86,0.00,,,0.07,VWS V14.00,2013-04-12 04:07:00,
2013-04-11 23:09:00,33.2,29.5,29.70,NNW,338,0.0,0.0,86,0.00,,,0.07,VWS V14.00,2013-04-12 04:09:00,
2013-04-11 23:14:00,33.1,29.4,29.70,NNW,338,0.0,0.0,86,0.00,,,0.07,VWS V14.00,2013-04-12 04:14:00,
2013-04-11 23:19:00,33.1,29.4,29.70,NNW,338,0.0,0.0,86,0.00,,,0.07,VWS V14.00,2013-04-12 04:19:00,
2013-04-11 23:24:00,33.0,29.3,29.70,NNW,338,0.0,0.0,86,0.00,,,0.07,VWS V14.00,2013-04-12 04:24:00,
2013-04-11 23:29:00,33.0,29.3,29.70,NNW,338,0.0,0.0,86,0.00,,,0.07,VWS V14.00,2013-04-12 04:29:00,
2013-04-11 23:34:00,32.9,29.2,29.71,NNW,338,0.0,0.0,86,0.00,,,0.07,VWS V14.00,2013-04-12 04:34:00,
2013-04-11 23:39:00,32.9,29.2,29.70,NNW,338,0.0,0.0,86,0.00,,,0.07,VWS V14.00,2013-04-12 04:39:00,
2013-04-11 23:45:00,32.9,29.2,29.71,NNW,338,0.0,0.0,86,0.00,,,0.07,VWS V14.00,2013-04-12 04:45:00,
2013-04-11 23:50:00,33.0,29.3,29.71,NNW,338,0.0,0.0,86,0.00,,,0.07,VWS V14.00,2013-04-12 04:50:00,
2013-04-11 23:55:00,32.9,29.2,29.71,NNW,338,0.0,0.0,86,0.00,,,0.07,VWS V14.00,2013-04-12 04:55:00,